#timestamp,LO_Frequency,Hit,StdDev 
1598583615.6,286046998.5,N
1598583635.4,286046998.5,N
1598583655.2,286047000.6,N
1598583675.1,286047001.2,N
1598583676.0,286047001.2,N
1598583695.8,286046998.4,N
1598583715.6,286046998.6,N
1598583735.5,286046996.5,N
1598583755.3,286046999.5,N
1598583775.2,286046999.1,N
1598583795.0,286046999.3,N
1598583795.9,286046999.3,N
1598583815.8,286046998.5,N
1598583835.6,286046998.6,N
1598583855.4,286046998.9,N
1598583875.3,286047000.8,N
1598583895.1,286047001.0,N
1598583915.8,286047001.2,N
1598583935.7,286047000.9,N
1598583955.5,286047001.2,N
1598583975.4,286047001.1,N
1598583995.2,286047001.2,N
1598584015.0,286047000.5,N
1598584015.9,286047000.5,N
1598584035.8,286047000.0,N
1598584055.6,286047000.3,N
1598584075.4,286047000.2,N
1598584095.3,286046999.7,N
1598584115.1,286047002.7,N
1598584135.9,286047002.4,N
1598584155.7,286047000.2,N
1598584175.5,286047001.2,N
1598584195.4,286047000.3,N
1598584215.2,286047000.9,N
1598584235.0,286047000.3,N
1598584236.0,286047000.3,N
1598584255.8,286047002.7,N
1598584275.6,286047002.5,N
1598584295.5,286047002.6,N
1598584315.3,286047001.7,N
1598584335.1,286047002.6,N
1598584355.9,286047002.2,N
1598584375.7,286047001.7,N
1598584395.6,286047002.8,N
1598584415.4,286047002.3,N
1598584435.2,286046999.7,N
1598584455.1,286047002.8,N
1598584456.0,286047002.8,N
1598584475.8,286047002.4,N
1598584495.6,286047002.1,N
1598584515.5,286047002.1,N
1598584535.3,286047002.3,N
1598584555.2,286047002.3,N
1598584575.9,286047002.4,N
1598584595.7,286047002.4,N
1598584615.6,286047002.4,N
1598584635.4,286047002.2,N
1598584655.3,286047002.2,N
1598584675.1,286047002.2,N
1598584676.0,286047002.2,N
1598584695.8,286047002.0,N
1598584715.7,286047002.1,N
1598584735.5,286047002.0,N
1598584755.3,286047002.6,Y
1598584805.2,286047001.1,E
1598584815.1,286046998.4,N
1598584835.9,286046999.3,P
1598584855.7,286046999.2,N
1598584875.6,286046999.0,N
1598584895.4,286046998.9,Y
1598584915.2,286047001.0,P
1598584935.1,286047001.2,N
1598584936.0,286047001.2,N
1598584955.8,286046998.6,N
1598584975.6,286047000.7,N
1598584995.5,286047000.5,N
1598585015.3,286047000.4,N
1598585035.2,286047000.3,N
1598585055.9,286047000.5,N
1598585075.7,286047001.2,N
1598585095.6,286046998.1,N
1598585115.4,286046999.7,N
1598585135.3,286046999.8,N
1598585155.1,286047000.7,N
1598585156.0,286047000.7,N
1598585175.8,286047000.2,N
1598585195.7,286047000.4,N
1598585215.5,286047000.4,N
1598585235.3,286047000.6,N
1598585255.2,286046999.9,N
1598585275.0,286047002.2,N
1598585275.9,286047002.2,N
1598585295.8,286046999.7,N
1598585315.6,286047000.5,N
1598585335.4,286046999.9,N
1598585355.3,286047000.1,N
1598585375.1,286047000.4,N
1598585395.9,286047000.3,N
1598585415.7,286047002.7,Y
1598585435.5,286047001.2,P
1598585455.4,286047000.5,N
1598585475.2,286047000.0,N
1598585495.0,286047000.4,N
1598585495.9,286047000.4,N
1598585515.8,286047000.5,N
1598585535.6,286047001.1,Y
1598585555.5,286047000.7,P
1598585575.3,286047001.1,P
1598585595.1,286047002.8,P
1598585615.9,286047001.2,N
1598585635.7,286046998.3,N
1598585655.6,286047000.7,N
1598585675.4,286047000.9,N
1598585695.2,286047001.1,N
1598585715.1,286047000.8,N
1598585716.0,286047000.8,N
1598585735.8,286047001.1,N
1598585755.6,286046998.4,N
1598585775.5,286046998.1,N
1598585795.3,286046998.6,N
1598585815.2,286047001.1,N
1598585835.9,286047001.0,N
1598585855.7,286047000.8,N
1598585875.6,286047001.0,N
1598585895.4,286047000.7,N
1598585915.3,286047000.6,N
1598585935.1,286046999.7,N
1598585936.0,286046999.7,N
1598585955.8,286047000.6,N
1598585975.7,286047000.9,N
1598585995.5,286047001.0,N
1598586015.3,286047001.2,N
1598586035.2,286047000.8,N
1598586055.0,286046998.3,N
1598586055.9,286046998.3,N
1598586075.8,286046998.4,N
1598586095.6,286047001.0,N
1598586115.4,286046999.4,N
1598586135.3,286046998.7,N
1598586155.1,286047000.5,N
1598586175.8,286047000.7,N
1598586195.7,286046998.7,N
1598586215.5,286046998.2,N
1598586235.4,286046998.5,N
1598586255.2,286046998.6,N
1598586275.0,286047000.6,N
1598586275.9,286047000.6,N
1598586295.8,286046999.9,N
1598586315.6,286047000.6,N
1598586335.5,286047001.2,N
1598586355.3,286046998.8,N
1598586375.1,286046998.1,N
1598586395.9,286046998.5,N
1598586415.7,286046999.4,N
1598586435.5,286046999.2,N
1598586455.4,286046997.0,N
1598586475.2,286046999.2,N
1598586495.1,286046999.3,N
1598586496.0,286046999.3,N
1598586515.8,286046999.4,N
1598586535.6,286046998.5,N
1598586555.5,286046998.6,N
1598586575.3,286046998.2,N
1598586595.1,286047000.4,N
1598586615.9,286046998.5,N
1598586635.7,286046998.7,N
1598586655.6,286046998.8,N
1598586675.4,286046998.5,N
1598586695.2,286046998.2,N
1598586715.1,286046998.7,N
1598586716.0,286046998.7,N
1598586735.8,286046999.1,N
1598586755.7,286046998.5,N
1598586775.5,286046999.3,N
1598586795.3,286046998.5,N
1598586815.2,286046998.5,N
1598586835.0,286047001.0,N
1598586835.9,286047001.0,N
1598586855.7,286047000.8,N
1598586875.6,286047000.8,N
1598586895.4,286047000.7,N
1598586915.3,286046998.4,N
1598586935.1,286047000.7,N
1598586936.0,286047000.7,N
1598586955.8,286046998.7,N
1598586975.7,286046999.4,N
1598586995.5,286046996.5,Y
1598587015.4,286047001.0,P
1598587035.2,286047000.5,N
1598587055.0,286046998.1,N
1598587055.9,286046998.1,N
1598587075.8,286047000.8,N
1598587095.6,286047000.8,N
1598587115.5,286046998.5,N
1598587135.3,286046999.0,N
1598587155.1,286046998.9,N
1598587175.9,286046998.9,N
1598587195.7,286046998.1,N
